Year,Month,Day,Hour,Minute,Value (Times are PST for temperature in C)
2010,03,24,00,00,5.20
2010,03,24,00,01,5.20
2010,03,24,00,02,5.20
2010,03,24,00,03,5.20
2010,03,24,00,04,5.10
2010,03,24,00,05,5.10
2010,03,24,00,06,5.10
2010,03,24,00,07,5.10
2010,03,24,00,08,5.10
2010,03,24,00,09,5.10
2010,03,24,00,10,5.10
2010,03,24,00,11,5.10
2010,03,24,00,12,5.10
2010,03,24,00,13,5.00
2010,03,24,00,14,5.00
2010,03,24,00,15,5.00
2010,03,24,00,16,5.00
2010,03,24,00,17,5.00
2010,03,24,00,18,4.90
2010,03,24,00,19,4.90
2010,03,24,00,20,4.90
2010,03,24,00,21,4.90
2010,03,24,00,22,4.90
2010,03,24,00,23,4.90
2010,03,24,00,24,4.90
2010,03,24,00,25,4.90
2010,03,24,00,26,4.90
2010,03,24,00,27,4.80
2010,03,24,00,28,4.80
2010,03,24,00,29,4.80
2010,03,24,00,30,4.80
2010,03,24,00,31,4.80
2010,03,24,00,32,4.80
2010,03,24,00,33,4.80
2010,03,24,00,34,4.80
2010,03,24,00,35,4.80
2010,03,24,00,36,4.80
2010,03,24,00,37,4.80
2010,03,24,00,38,4.80
2010,03,24,00,39,4.80
2010,03,24,00,40,4.80
2010,03,24,00,41,4.80
2010,03,24,00,42,4.80
2010,03,24,00,43,4.80
2010,03,24,00,44,4.80
2010,03,24,00,45,4.80
2010,03,24,00,46,4.80
2010,03,24,00,47,4.80
2010,03,24,00,48,4.80
2010,03,24,00,49,4.80
2010,03,24,00,50,4.80
2010,03,24,00,51,4.80
2010,03,24,00,52,4.80
2010,03,24,00,53,4.80
2010,03,24,00,54,4.80
2010,03,24,00,55,4.80
2010,03,24,00,56,4.80
2010,03,24,00,57,4.80
2010,03,24,00,58,4.80
2010,03,24,00,59,4.80
2010,03,24,01,00,4.80
2010,03,24,01,01,4.80
2010,03,24,01,02,4.80
2010,03,24,01,03,4.80
2010,03,24,01,04,4.70
2010,03,24,01,05,4.70
2010,03,24,01,06,4.70
2010,03,24,01,07,4.70
2010,03,24,01,08,4.70
2010,03,24,01,09,4.70
2010,03,24,01,10,4.60
2010,03,24,01,11,4.60
2010,03,24,01,12,4.60
2010,03,24,01,13,4.60
2010,03,24,01,14,4.60
2010,03,24,01,15,4.60
2010,03,24,01,16,4.60
2010,03,24,01,17,4.60
2010,03,24,01,18,4.60
2010,03,24,01,19,4.60
2010,03,24,01,20,4.60
2010,03,24,01,21,4.60
2010,03,24,01,22,4.60
2010,03,24,01,23,4.60
2010,03,24,01,24,4.60
2010,03,24,01,25,4.60
2010,03,24,01,26,4.60
2010,03,24,01,27,4.60
2010,03,24,01,28,4.60
2010,03,24,01,29,4.60
2010,03,24,01,30,4.50
2010,03,24,01,31,4.50
2010,03,24,01,32,4.50
2010,03,24,01,33,4.50
2010,03,24,01,34,4.40
2010,03,24,01,35,4.40
2010,03,24,01,36,4.40
2010,03,24,01,37,4.40
2010,03,24,01,38,4.40
2010,03,24,01,39,4.40
2010,03,24,01,40,4.40
2010,03,24,01,41,4.40
2010,03,24,01,42,4.40
2010,03,24,01,43,4.30
2010,03,24,01,44,4.30
2010,03,24,01,45,4.30
2010,03,24,01,46,4.30
2010,03,24,01,47,4.30
2010,03,24,01,48,4.30
2010,03,24,01,49,4.30
2010,03,24,01,50,4.30
2010,03,24,01,51,4.30
2010,03,24,01,52,4.30
2010,03,24,01,53,4.30
2010,03,24,01,54,4.30
2010,03,24,01,55,4.30
2010,03,24,01,56,4.30
2010,03,24,01,57,4.30
2010,03,24,01,58,4.30
2010,03,24,01,59,4.30
2010,03,24,02,00,4.30
2010,03,24,02,01,4.30
2010,03,24,02,02,4.20
2010,03,24,02,03,4.20
2010,03,24,02,04,4.20
2010,03,24,02,05,4.20
2010,03,24,02,06,4.20
2010,03,24,02,07,4.20
2010,03,24,02,08,4.20
2010,03,24,02,09,4.10
2010,03,24,02,10,4.20
2010,03,24,02,11,4.10
2010,03,24,02,12,4.10
2010,03,24,02,13,4.10
2010,03,24,02,14,4.10
2010,03,24,02,15,4.10
2010,03,24,02,16,4.10
2010,03,24,02,17,4.10
2010,03,24,02,18,4.10
2010,03,24,02,19,4.10
2010,03,24,02,20,4.10
2010,03,24,02,21,4.10
2010,03,24,02,22,4.10
2010,03,24,02,23,4.10
2010,03,24,02,24,4.00
2010,03,24,02,25,4.00
2010,03,24,02,26,4.00
2010,03,24,02,27,3.90
2010,03,24,02,28,3.90
2010,03,24,02,29,3.90
2010,03,24,02,30,3.90
2010,03,24,02,31,3.90
2010,03,24,02,32,3.90
2010,03,24,02,33,3.90
2010,03,24,02,34,3.90
2010,03,24,02,35,3.90
2010,03,24,02,36,4.00
2010,03,24,02,37,4.00
2010,03,24,02,38,4.00
2010,03,24,02,39,4.00
2010,03,24,02,40,4.00
2010,03,24,02,41,4.10
2010,03,24,02,42,4.10
2010,03,24,02,43,4.10
2010,03,24,02,44,4.10
2010,03,24,02,45,4.10
2010,03,24,02,46,4.10
2010,03,24,02,47,4.10
2010,03,24,02,48,4.10
2010,03,24,02,49,4.00
2010,03,24,02,50,4.00
2010,03,24,02,51,4.00
2010,03,24,02,52,4.00
2010,03,24,02,53,3.90
2010,03,24,02,54,3.90
2010,03,24,02,55,3.90
2010,03,24,02,56,3.90
2010,03,24,02,57,3.90
2010,03,24,02,58,3.80
2010,03,24,02,59,3.80
2010,03,24,03,00,3.80
2010,03,24,03,01,3.80
2010,03,24,03,02,3.80
2010,03,24,03,03,3.80
2010,03,24,03,04,3.80
2010,03,24,03,05,3.80
2010,03,24,03,06,3.80
2010,03,24,03,07,3.80
2010,03,24,03,08,3.80
2010,03,24,03,09,3.80
2010,03,24,03,10,3.80
2010,03,24,03,11,3.80
2010,03,24,03,12,3.80
2010,03,24,03,13,3.80
2010,03,24,03,14,3.80
2010,03,24,03,15,3.80
2010,03,24,03,16,3.80
2010,03,24,03,17,3.70
2010,03,24,03,18,3.70
2010,03,24,03,19,3.70
2010,03,24,03,20,3.70
2010,03,24,03,21,3.60
2010,03,24,03,22,3.60
2010,03,24,03,23,3.60
2010,03,24,03,24,3.60
2010,03,24,03,25,3.60
2010,03,24,03,26,3.60
2010,03,24,03,27,3.50
2010,03,24,03,28,3.50
2010,03,24,03,29,3.50
2010,03,24,03,30,3.50
2010,03,24,03,31,3.50
2010,03,24,03,32,3.50
2010,03,24,03,33,3.40
2010,03,24,03,34,3.40
2010,03,24,03,35,3.40
2010,03,24,03,36,3.40
2010,03,24,03,37,3.40
2010,03,24,03,38,3.40
2010,03,24,03,39,3.30
2010,03,24,03,40,3.30
2010,03,24,03,41,3.30
2010,03,24,03,42,3.30
2010,03,24,03,43,3.30
2010,03,24,03,44,3.30
2010,03,24,03,45,3.30
2010,03,24,03,46,3.30
2010,03,24,03,47,3.30
2010,03,24,03,48,3.30
2010,03,24,03,49,3.20
2010,03,24,03,50,3.20
2010,03,24,03,51,3.20
2010,03,24,03,52,3.20
2010,03,24,03,53,3.20
2010,03,24,03,54,3.20
2010,03,24,03,55,3.20
2010,03,24,03,56,3.20
2010,03,24,03,57,3.20
2010,03,24,03,58,3.20
2010,03,24,03,59,3.10
2010,03,24,04,00,3.10
2010,03,24,04,01,3.10
2010,03,24,04,02,3.10
2010,03,24,04,03,3.10
2010,03,24,04,04,3.00
2010,03,24,04,05,3.00
2010,03,24,04,06,3.00
2010,03,24,04,07,3.00
2010,03,24,04,08,3.00
2010,03,24,04,09,2.90
2010,03,24,04,10,2.90
2010,03,24,04,11,2.90
2010,03,24,04,12,2.90
2010,03,24,04,13,2.90
2010,03,24,04,14,2.90
2010,03,24,04,15,2.90
2010,03,24,04,16,2.90
2010,03,24,04,17,2.90
2010,03,24,04,18,2.90
2010,03,24,04,19,2.90
2010,03,24,04,20,2.90
2010,03,24,04,21,2.90
2010,03,24,04,22,2.90
2010,03,24,04,23,2.90
2010,03,24,04,24,2.90
2010,03,24,04,25,2.90
2010,03,24,04,26,2.90
2010,03,24,04,27,2.90
2010,03,24,04,28,2.90
2010,03,24,04,29,2.90
2010,03,24,04,30,2.90
2010,03,24,04,31,2.90
2010,03,24,04,32,2.90
2010,03,24,04,33,2.80
2010,03,24,04,34,2.80
2010,03,24,04,35,2.80
2010,03,24,04,36,2.80
2010,03,24,04,37,2.80
2010,03,24,04,38,2.80
2010,03,24,04,39,2.70
2010,03,24,04,40,2.70
2010,03,24,04,41,2.70
2010,03,24,04,42,2.60
2010,03,24,04,43,2.60
2010,03,24,04,44,2.60
2010,03,24,04,45,2.60
2010,03,24,04,46,2.60
2010,03,24,04,47,2.60
2010,03,24,04,48,2.60
2010,03,24,04,49,2.50
2010,03,24,04,50,2.50
2010,03,24,04,51,2.50
2010,03,24,04,52,2.50
2010,03,24,04,53,2.50
2010,03,24,04,54,2.50
2010,03,24,04,55,2.50
2010,03,24,04,56,2.50
2010,03,24,04,57,2.50
2010,03,24,04,58,2.50
2010,03,24,04,59,2.50
2010,03,24,05,00,2.50
2010,03,24,05,01,2.50
2010,03,24,05,02,2.50
2010,03,24,05,03,2.50
2010,03,24,05,05,2.50
2010,03,24,05,06,2.50
2010,03,24,05,07,2.50
2010,03,24,05,08,2.50
2010,03,24,05,09,2.50
2010,03,24,05,10,2.50
2010,03,24,05,11,2.50
2010,03,24,05,12,2.50
2010,03,24,05,13,2.50
2010,03,24,05,14,2.50
2010,03,24,05,15,2.50
2010,03,24,05,16,2.50
2010,03,24,05,17,2.60
2010,03,24,05,18,2.60
2010,03,24,05,19,2.60
2010,03,24,05,20,2.60
2010,03,24,05,21,2.70
2010,03,24,05,22,2.70
2010,03,24,05,23,2.70
2010,03,24,05,24,2.70
2010,03,24,05,25,2.70
2010,03,24,05,26,2.70
2010,03,24,05,27,2.70
2010,03,24,05,28,2.70
2010,03,24,05,29,2.70
2010,03,24,05,30,2.70
2010,03,24,05,31,2.70
2010,03,24,05,32,2.70
2010,03,24,05,33,2.70
2010,03,24,05,34,2.70
2010,03,24,05,35,2.70
2010,03,24,05,36,2.70
2010,03,24,05,37,2.70
2010,03,24,05,38,2.70
2010,03,24,05,39,2.70
2010,03,24,05,40,2.80
2010,03,24,05,41,2.80
2010,03,24,05,42,2.80
2010,03,24,05,43,2.80
2010,03,24,05,44,2.80
2010,03,24,05,45,2.80
2010,03,24,05,46,2.80
2010,03,24,05,47,2.80
2010,03,24,05,48,2.80
2010,03,24,05,49,2.70
2010,03,24,05,50,2.70
2010,03,24,05,51,2.70
2010,03,24,05,52,2.70
2010,03,24,05,53,2.70
2010,03,24,05,54,2.70
2010,03,24,05,55,2.70
2010,03,24,05,56,2.70
2010,03,24,05,57,2.70
2010,03,24,05,58,2.70
2010,03,24,05,59,2.70
2010,03,24,06,00,2.70
2010,03,24,06,01,2.70
2010,03,24,06,02,2.70
2010,03,24,06,03,2.70
2010,03,24,06,04,2.70
2010,03,24,06,05,2.70
2010,03,24,06,06,2.60
2010,03,24,06,07,2.60
2010,03,24,06,08,2.60
2010,03,24,06,09,2.60
2010,03,24,06,10,2.50
2010,03,24,06,11,2.50
2010,03,24,06,12,2.40
2010,03,24,06,13,2.40
2010,03,24,06,14,2.40
2010,03,24,06,15,2.30
2010,03,24,06,16,2.30
2010,03,24,06,17,2.30
2010,03,24,06,18,2.30
2010,03,24,06,19,2.30
2010,03,24,06,20,2.30
2010,03,24,06,21,2.30
2010,03,24,06,22,2.30
2010,03,24,06,23,2.30
2010,03,24,06,24,2.30
2010,03,24,06,25,2.30
2010,03,24,06,26,2.20
2010,03,24,06,27,2.20
2010,03,24,06,28,2.20
2010,03,24,06,29,2.20
2010,03,24,06,30,2.20
2010,03,24,06,31,2.20
2010,03,24,06,32,2.20
2010,03,24,06,33,2.20
2010,03,24,06,34,2.10
2010,03,24,06,35,2.10
2010,03,24,06,36,2.10
2010,03,24,06,37,2.10
2010,03,24,06,38,2.00
2010,03,24,06,39,2.00
2010,03,24,06,40,2.00
2010,03,24,06,41,2.00
2010,03,24,06,42,2.00
2010,03,24,06,43,2.00
2010,03,24,06,44,2.00
2010,03,24,06,45,2.00
2010,03,24,06,46,2.00
2010,03,24,06,47,2.00
2010,03,24,06,48,2.00
2010,03,24,06,49,2.00
2010,03,24,06,50,2.00
2010,03,24,06,51,2.00
2010,03,24,06,52,2.00
2010,03,24,06,53,2.00
2010,03,24,06,54,2.00
2010,03,24,06,55,2.00
2010,03,24,06,56,2.00
2010,03,24,06,57,2.00
2010,03,24,06,58,2.00
2010,03,24,06,59,2.00
2010,03,24,07,00,2.00
2010,03,24,07,01,2.00
2010,03,24,07,02,2.00
2010,03,24,07,03,2.00
2010,03,24,07,04,2.00
2010,03,24,07,05,2.00
2010,03,24,07,06,2.00
2010,03,24,07,07,2.00
2010,03,24,07,08,1.90
2010,03,24,07,09,1.90
2010,03,24,07,10,1.90
2010,03,24,07,11,1.90
2010,03,24,07,12,1.90
2010,03,24,07,13,1.90
2010,03,24,07,14,1.90
2010,03,24,07,15,1.90
2010,03,24,07,16,1.90
2010,03,24,07,17,1.90
2010,03,24,07,18,1.90
2010,03,24,07,19,1.90
2010,03,24,07,20,1.90
2010,03,24,07,21,1.90
2010,03,24,07,22,2.00
2010,03,24,07,23,2.00
2010,03,24,07,24,2.00
2010,03,24,07,25,2.00
2010,03,24,07,26,2.00
2010,03,24,07,27,2.00
2010,03,24,07,28,1.90
2010,03,24,07,29,1.90
2010,03,24,07,30,1.90
2010,03,24,07,31,1.90
2010,03,24,07,32,1.90
2010,03,24,07,33,1.90
2010,03,24,07,34,1.90
2010,03,24,07,35,1.90
2010,03,24,07,36,2.00
2010,03,24,07,37,1.90
2010,03,24,07,38,1.90
2010,03,24,07,39,2.00
2010,03,24,07,40,2.00
2010,03,24,07,41,2.00
2010,03,24,07,42,2.00
2010,03,24,07,43,2.00
2010,03,24,07,44,2.00
2010,03,24,07,45,2.00
2010,03,24,07,46,2.00
2010,03,24,07,47,2.00
2010,03,24,07,48,2.00
2010,03,24,07,49,2.00
2010,03,24,07,50,2.00
2010,03,24,07,51,2.00
2010,03,24,07,52,2.10
2010,03,24,07,53,2.10
2010,03,24,07,54,2.10
2010,03,24,07,55,2.10
2010,03,24,07,56,2.10
2010,03,24,07,57,2.10
2010,03,24,07,58,2.10
2010,03,24,07,59,2.10
2010,03,24,08,00,2.10
2010,03,24,08,01,2.10
2010,03,24,08,02,2.10
2010,03,24,08,03,2.10
2010,03,24,08,04,2.20
2010,03,24,08,05,2.20
2010,03,24,08,06,2.20
2010,03,24,08,07,2.20
2010,03,24,08,08,2.20
2010,03,24,08,09,2.20
2010,03,24,08,10,2.30
2010,03,24,08,11,2.30
2010,03,24,08,12,2.30
2010,03,24,08,13,2.30
2010,03,24,08,14,2.30
2010,03,24,08,15,2.30
2010,03,24,08,16,2.40
2010,03,24,08,17,2.40
2010,03,24,08,18,2.40
2010,03,24,08,19,2.40
2010,03,24,08,20,2.40
2010,03,24,08,21,2.50
2010,03,24,08,22,2.50
2010,03,24,08,23,2.50
2010,03,24,08,24,2.60
2010,03,24,08,25,2.60
2010,03,24,08,26,2.60
2010,03,24,08,27,2.60
2010,03,24,08,28,2.70
2010,03,24,08,29,2.70
2010,03,24,08,30,2.70
2010,03,24,08,31,2.80
2010,03,24,08,32,2.80
2010,03,24,08,33,2.80
2010,03,24,08,34,2.80
2010,03,24,08,35,2.90
2010,03,24,08,36,2.90
2010,03,24,08,37,2.90
2010,03,24,08,38,3.00
2010,03,24,08,39,3.00
2010,03,24,08,40,3.00
2010,03,24,08,41,3.10
2010,03,24,08,42,3.10
2010,03,24,08,43,3.20
2010,03,24,08,44,3.20
2010,03,24,08,45,3.30
2010,03,24,08,46,3.30
2010,03,24,08,47,3.30
2010,03,24,08,48,3.40
2010,03,24,08,49,3.40
2010,03,24,08,50,3.50
2010,03,24,08,51,3.50
2010,03,24,08,52,3.60
2010,03,24,08,53,3.70
2010,03,24,08,54,3.70
2010,03,24,08,55,3.80
2010,03,24,08,56,3.80
2010,03,24,08,57,3.80
2010,03,24,08,58,3.90
2010,03,24,08,59,3.90
2010,03,24,09,00,3.90
2010,03,24,09,01,4.00
2010,03,24,09,02,4.10
2010,03,24,09,03,4.10
2010,03,24,09,04,4.10
2010,03,24,09,05,4.20
2010,03,24,09,06,4.20
2010,03,24,09,07,4.30
2010,03,24,09,08,4.30
2010,03,24,09,09,4.30
2010,03,24,09,10,4.40
2010,03,24,09,11,4.40
2010,03,24,09,12,4.50
2010,03,24,09,13,4.60
2010,03,24,09,14,4.60
2010,03,24,09,15,4.70
2010,03,24,09,16,4.70
2010,03,24,09,17,4.80
2010,03,24,09,18,4.80
2010,03,24,09,19,4.80
2010,03,24,09,20,4.80
2010,03,24,09,21,4.80
2010,03,24,09,22,4.90
2010,03,24,09,23,4.90
2010,03,24,09,24,4.90
2010,03,24,09,25,5.00
2010,03,24,09,26,5.00
2010,03,24,09,27,5.10
2010,03,24,09,28,5.10
2010,03,24,09,29,5.10
2010,03,24,09,30,5.10
2010,03,24,09,31,5.20
2010,03,24,09,32,5.20
2010,03,24,09,33,5.30
2010,03,24,09,34,5.30
2010,03,24,09,35,5.40
2010,03,24,09,36,5.40
2010,03,24,09,37,5.50
2010,03,24,09,38,5.50
2010,03,24,09,39,5.50
2010,03,24,09,40,5.60
2010,03,24,09,41,5.60
2010,03,24,09,42,5.70
2010,03,24,09,43,5.70
2010,03,24,09,44,5.80
2010,03,24,09,45,5.80
2010,03,24,09,46,5.80
2010,03,24,09,47,5.90
2010,03,24,09,48,5.90
2010,03,24,09,49,6.00
2010,03,24,09,50,6.00
2010,03,24,09,51,6.10
2010,03,24,09,52,6.10
2010,03,24,09,53,6.10
2010,03,24,09,54,6.20
2010,03,24,09,55,6.20
2010,03,24,09,56,6.20
2010,03,24,09,57,6.30
2010,03,24,09,58,6.30
2010,03,24,09,59,6.40
2010,03,24,10,00,6.40
2010,03,24,10,01,6.50
2010,03,24,10,02,6.60
2010,03,24,10,03,6.60
2010,03,24,10,04,6.70
2010,03,24,10,05,6.80
2010,03,24,10,06,6.80
2010,03,24,10,07,6.90
2010,03,24,10,08,7.00
2010,03,24,10,09,7.00
2010,03,24,10,10,7.10
2010,03,24,10,11,7.20
2010,03,24,10,12,7.20
2010,03,24,10,13,7.30
2010,03,24,10,14,7.30
2010,03,24,10,15,7.40
2010,03,24,10,16,7.40
2010,03,24,10,17,7.50
2010,03,24,10,18,7.60
2010,03,24,10,19,7.60
2010,03,24,10,20,7.70
2010,03,24,10,21,7.80
2010,03,24,10,22,7.80
2010,03,24,10,23,7.90
2010,03,24,10,24,8.00
2010,03,24,10,25,8.10
2010,03,24,10,26,8.20
2010,03,24,10,27,8.30
2010,03,24,10,28,8.30
2010,03,24,10,29,8.40
2010,03,24,10,30,8.50
2010,03,24,10,31,8.60
2010,03,24,10,32,8.60
2010,03,24,10,33,8.70
2010,03,24,10,34,8.80
2010,03,24,10,35,8.90
2010,03,24,10,36,9.00
2010,03,24,10,37,9.00
2010,03,24,10,38,9.10
2010,03,24,10,39,9.20
2010,03,24,10,40,9.30
2010,03,24,10,41,9.40
2010,03,24,10,42,9.50
2010,03,24,10,43,9.50
2010,03,24,10,44,9.60
2010,03,24,10,45,9.70
2010,03,24,10,46,9.80
2010,03,24,10,47,9.80
2010,03,24,10,48,10.00
2010,03,24,10,49,10.00
2010,03,24,10,50,10.10
2010,03,24,10,51,10.20
2010,03,24,10,52,10.30
2010,03,24,10,53,10.40
2010,03,24,10,54,10.40
2010,03,24,10,55,10.50
2010,03,24,10,56,10.60
2010,03,24,10,57,10.70
2010,03,24,10,58,10.80
2010,03,24,10,59,10.80
2010,03,24,11,00,10.80
2010,03,24,11,01,10.80
2010,03,24,11,02,10.70
2010,03,24,11,03,10.70
2010,03,24,11,04,10.70
2010,03,24,11,05,10.70
2010,03,24,11,06,10.80
2010,03,24,11,07,10.80
2010,03,24,11,08,10.80
2010,03,24,11,09,10.80
2010,03,24,11,10,10.80
2010,03,24,11,11,10.80
2010,03,24,11,12,10.80
2010,03,24,11,13,10.80
2010,03,24,11,14,10.80
2010,03,24,11,15,10.90
2010,03,24,11,16,11.00
2010,03,24,11,17,11.00
2010,03,24,11,18,11.10
2010,03,24,11,19,11.10
2010,03,24,11,20,11.20
2010,03,24,11,21,11.20
2010,03,24,11,22,11.30
2010,03,24,11,24,11.40
2010,03,24,11,25,11.40
2010,03,24,11,26,11.50
2010,03,24,11,27,11.60
2010,03,24,11,28,11.60
2010,03,24,11,29,11.70
2010,03,24,11,30,11.70
2010,03,24,11,31,11.80
2010,03,24,11,32,11.80
2010,03,24,11,33,11.90
2010,03,24,11,34,11.90
2010,03,24,11,35,11.90
2010,03,24,11,36,12.00
2010,03,24,11,37,12.10
2010,03,24,11,38,12.10
2010,03,24,11,39,12.20
2010,03,24,11,40,12.20
2010,03,24,11,41,12.20
2010,03,24,11,42,12.30
2010,03,24,11,43,12.30
2010,03,24,11,44,12.20
2010,03,24,11,45,12.20
2010,03,24,11,46,12.20
2010,03,24,11,47,12.20
2010,03,24,11,48,12.10
2010,03,24,11,49,12.10
2010,03,24,11,50,12.00
2010,03,24,11,51,12.00
2010,03,24,11,52,12.10
2010,03,24,11,53,12.10
2010,03,24,11,54,12.10
2010,03,24,11,55,12.30
2010,03,24,11,56,12.30
2010,03,24,11,57,12.40
2010,03,24,11,58,12.40
2010,03,24,11,59,12.50
2010,03,24,12,00,12.60
2010,03,24,12,01,12.70
2010,03,24,12,02,12.70
2010,03,24,12,03,12.80
2010,03,24,12,04,12.80
2010,03,24,12,05,12.90
2010,03,24,12,06,13.00
2010,03,24,12,07,13.10
2010,03,24,12,08,13.10
2010,03,24,12,09,13.10
2010,03,24,12,10,13.00
2010,03,24,12,11,13.00
2010,03,24,12,12,13.00
2010,03,24,12,13,13.10
2010,03,24,12,14,13.10
2010,03,24,12,15,13.20
2010,03,24,12,16,13.20
2010,03,24,12,17,13.30
2010,03,24,12,18,13.40
2010,03,24,12,19,13.50
2010,03,24,12,20,13.50
2010,03,24,12,21,13.60
2010,03,24,12,22,13.60
2010,03,24,12,23,13.70
2010,03,24,12,24,13.70
2010,03,24,12,25,13.80
2010,03,24,12,26,13.90
2010,03,24,12,27,13.90
2010,03,24,12,28,14.00
2010,03,24,12,29,14.10
2010,03,24,12,30,14.10
2010,03,24,12,31,14.20
2010,03,24,12,32,14.30
2010,03,24,12,33,14.30
2010,03,24,12,34,14.30
2010,03,24,12,35,14.30
2010,03,24,12,36,14.30
2010,03,24,12,37,14.30
2010,03,24,12,38,14.30
2010,03,24,12,39,14.30
2010,03,24,12,40,14.20
2010,03,24,12,41,14.10
2010,03,24,12,42,14.00
2010,03,24,12,43,13.80
2010,03,24,12,44,13.70
2010,03,24,12,45,13.60
2010,03,24,12,46,13.40
2010,03,24,12,47,13.30
2010,03,24,12,48,13.20
2010,03,24,12,49,13.10
2010,03,24,12,50,13.10
2010,03,24,12,51,13.00
2010,03,24,12,52,13.00
2010,03,24,12,53,13.00
2010,03,24,12,54,13.00
2010,03,24,12,55,12.90
2010,03,24,12,56,13.00
2010,03,24,12,57,13.00
2010,03,24,12,58,12.90
2010,03,24,12,59,12.90
2010,03,24,13,00,12.80
2010,03,24,13,01,12.80
2010,03,24,13,02,12.80
2010,03,24,13,03,12.80
2010,03,24,13,04,12.80
2010,03,24,13,05,12.80
2010,03,24,13,06,12.80
2010,03,24,13,07,12.90
2010,03,24,13,08,12.90
2010,03,24,13,09,12.90
2010,03,24,13,10,12.90
2010,03,24,13,11,12.90
2010,03,24,13,12,12.90
2010,03,24,13,13,12.90
2010,03,24,13,14,12.90
2010,03,24,13,15,12.90
2010,03,24,13,16,13.00
2010,03,24,13,17,13.10
2010,03,24,13,18,13.20
2010,03,24,13,19,13.30
2010,03,24,13,20,13.30
2010,03,24,13,21,13.40
2010,03,24,13,22,13.40
2010,03,24,13,23,13.50
2010,03,24,13,24,13.60
2010,03,24,13,25,13.70
2010,03,24,13,26,13.90
2010,03,24,13,27,13.90
2010,03,24,13,28,13.90
2010,03,24,13,29,13.90
2010,03,24,13,30,13.80
2010,03,24,13,31,13.70
2010,03,24,13,32,13.70
2010,03,24,13,33,13.70
2010,03,24,13,34,13.80
2010,03,24,13,35,13.90
2010,03,24,13,36,13.90
2010,03,24,13,37,14.00
2010,03,24,13,38,14.10
2010,03,24,13,39,14.30
2010,03,24,13,40,14.40
2010,03,24,13,41,14.50
2010,03,24,13,42,14.70
2010,03,24,13,43,14.80
2010,03,24,13,44,14.90
2010,03,24,13,45,15.00
2010,03,24,13,46,15.00
2010,03,24,13,47,15.20
2010,03,24,13,48,15.30
2010,03,24,13,49,15.30
2010,03,24,13,50,15.30
2010,03,24,13,51,15.20
2010,03,24,13,52,15.00
2010,03,24,13,53,15.00
2010,03,24,13,54,14.80
2010,03,24,13,55,14.80
2010,03,24,13,56,14.80
2010,03,24,13,57,14.80
2010,03,24,13,58,14.80
2010,03,24,13,59,14.70
2010,03,24,14,00,14.70
2010,03,24,14,01,14.70
2010,03,24,14,02,14.70
2010,03,24,14,03,14.70
2010,03,24,14,04,14.80
2010,03,24,14,05,14.80
2010,03,24,14,06,14.80
2010,03,24,14,07,14.70
2010,03,24,14,08,14.70
2010,03,24,14,09,14.70
2010,03,24,14,10,14.70
2010,03,24,14,11,14.70
2010,03,24,14,12,14.60
2010,03,24,14,13,14.60
2010,03,24,14,14,14.60
2010,03,24,14,15,14.70
2010,03,24,14,16,14.80
2010,03,24,14,17,14.80
2010,03,24,14,18,14.80
2010,03,24,14,19,14.80
2010,03,24,14,20,14.90
2010,03,24,14,21,15.00
2010,03,24,14,22,15.00
2010,03,24,14,23,15.00
2010,03,24,14,24,15.10
2010,03,24,14,25,15.20
2010,03,24,14,26,15.30
2010,03,24,14,27,15.30
2010,03,24,14,28,15.40
2010,03,24,14,29,15.40
2010,03,24,14,30,15.30
2010,03,24,14,31,15.30
2010,03,24,14,32,15.30
2010,03,24,14,33,15.20
2010,03,24,14,34,15.00
2010,03,24,14,35,15.00
2010,03,24,14,36,15.00
2010,03,24,14,37,15.00
2010,03,24,14,38,15.00
2010,03,24,14,39,15.00
2010,03,24,14,40,15.00
2010,03,24,14,41,15.10
2010,03,24,14,42,15.20
2010,03,24,14,43,15.20
2010,03,24,14,44,15.30
2010,03,24,14,45,15.20
2010,03,24,14,46,15.20
2010,03,24,14,47,15.30
2010,03,24,14,48,15.30
2010,03,24,14,49,15.40
2010,03,24,14,50,15.40
2010,03,24,14,51,15.40
2010,03,24,14,52,15.40
2010,03,24,14,53,15.40
2010,03,24,14,54,15.40
2010,03,24,14,55,15.40
2010,03,24,14,56,15.40
2010,03,24,14,57,15.40
2010,03,24,14,58,15.30
2010,03,24,14,59,15.40
2010,03,24,15,00,15.40
2010,03,24,15,01,15.50
2010,03,24,15,02,15.60
2010,03,24,15,03,15.70
2010,03,24,15,04,15.80
2010,03,24,15,05,15.90
2010,03,24,15,06,16.00
2010,03,24,15,07,15.90
2010,03,24,15,08,15.90
2010,03,24,15,09,15.80
2010,03,24,15,10,15.70
2010,03,24,15,11,15.60
2010,03,24,15,12,15.60
2010,03,24,15,13,15.60
2010,03,24,15,14,15.60
2010,03,24,15,15,15.60
2010,03,24,15,16,15.70
2010,03,24,15,17,15.70
2010,03,24,15,18,15.70
2010,03,24,15,19,15.70
2010,03,24,15,20,15.60
2010,03,24,15,21,15.60
2010,03,24,15,22,15.70
2010,03,24,15,23,15.70
2010,03,24,15,24,15.70
2010,03,24,15,25,15.70
2010,03,24,15,26,15.60
2010,03,24,15,27,15.60
2010,03,24,15,28,15.50
2010,03,24,15,29,15.50
2010,03,24,15,30,15.40
2010,03,24,15,31,15.40
2010,03,24,15,32,15.40
2010,03,24,15,33,15.50
2010,03,24,15,34,15.60
2010,03,24,15,35,15.60
2010,03,24,15,36,15.60
2010,03,24,15,37,15.60
2010,03,24,15,38,15.70
2010,03,24,15,39,15.70
2010,03,24,15,40,15.60
2010,03,24,15,41,15.60
2010,03,24,15,42,15.60
2010,03,24,15,43,15.60
2010,03,24,15,44,15.60
2010,03,24,15,45,15.60
2010,03,24,15,46,15.70
2010,03,24,15,47,15.80
2010,03,24,15,48,15.80
2010,03,24,15,49,15.90
2010,03,24,15,50,16.00
2010,03,24,15,51,16.10
2010,03,24,15,52,16.20
2010,03,24,15,53,16.30
2010,03,24,15,54,16.30
2010,03,24,15,55,16.40
2010,03,24,15,56,16.50
2010,03,24,15,57,16.50
2010,03,24,15,58,16.60
2010,03,24,15,59,16.80
2010,03,24,16,00,16.90
2010,03,24,16,01,16.90
2010,03,24,16,02,17.00
2010,03,24,16,03,17.10
2010,03,24,16,04,17.10
2010,03,24,16,05,17.10
2010,03,24,16,06,17.10
2010,03,24,16,07,17.10
2010,03,24,16,08,17.20
2010,03,24,16,09,17.20
2010,03,24,16,10,17.10
2010,03,24,16,11,17.00
2010,03,24,16,12,17.00
2010,03,24,16,13,17.10
2010,03,24,16,14,17.20
2010,03,24,16,15,17.20
2010,03,24,16,16,17.30
2010,03,24,16,17,17.20
2010,03,24,16,18,17.10
2010,03,24,16,19,17.10
2010,03,24,16,20,17.00
2010,03,24,16,21,17.00
2010,03,24,16,22,16.80
2010,03,24,16,23,16.70
2010,03,24,16,24,16.60
2010,03,24,16,25,16.60
2010,03,24,16,26,16.60
2010,03,24,16,27,16.50
2010,03,24,16,28,16.40
2010,03,24,16,29,16.40
2010,03,24,16,30,16.40
2010,03,24,16,31,16.50
2010,03,24,16,32,16.50
2010,03,24,16,33,16.60
2010,03,24,16,34,16.70
2010,03,24,16,35,16.70
2010,03,24,16,36,16.60
2010,03,24,16,37,16.50
2010,03,24,16,38,16.50
2010,03,24,16,39,16.50
2010,03,24,16,40,16.40
2010,03,24,16,41,16.40
2010,03,24,16,42,16.30
2010,03,24,16,43,16.30
2010,03,24,16,44,16.30
2010,03,24,16,45,16.30
2010,03,24,16,46,16.20
2010,03,24,16,47,16.20
2010,03,24,16,48,16.10
2010,03,24,16,49,16.10
2010,03,24,16,50,16.10
2010,03,24,16,51,16.10
2010,03,24,16,52,16.10
2010,03,24,16,53,16.10
2010,03,24,16,54,16.10
2010,03,24,16,55,16.10
2010,03,24,16,56,16.10
2010,03,24,16,57,16.10
2010,03,24,16,58,16.10
2010,03,24,16,59,16.10
2010,03,24,17,00,16.10
2010,03,24,17,01,16.00
2010,03,24,17,02,16.00
2010,03,24,17,03,16.00
2010,03,24,17,04,16.00
2010,03,24,17,05,16.00
2010,03,24,17,06,16.00
2010,03,24,17,07,16.00
2010,03,24,17,08,16.10
2010,03,24,17,09,16.10
2010,03,24,17,10,16.00
2010,03,24,17,11,16.10
2010,03,24,17,12,16.10
2010,03,24,17,13,16.10
2010,03,24,17,14,16.10
2010,03,24,17,15,16.10
2010,03,24,17,16,16.10
2010,03,24,17,17,16.10
2010,03,24,17,18,16.10
2010,03,24,17,19,16.10
2010,03,24,17,20,16.20
2010,03,24,17,21,16.20
2010,03,24,17,22,16.30
2010,03,24,17,23,16.40
2010,03,24,17,24,16.40
2010,03,24,17,25,16.50
2010,03,24,17,26,16.60
2010,03,24,17,27,16.60
2010,03,24,17,28,16.60
2010,03,24,17,29,16.60
2010,03,24,17,30,16.60
2010,03,24,17,31,16.60
2010,03,24,17,32,16.60
2010,03,24,17,33,16.60
2010,03,24,17,34,16.60
2010,03,24,17,35,16.50
2010,03,24,17,36,16.50
2010,03,24,17,37,16.40
2010,03,24,17,38,16.30
2010,03,24,17,39,16.20
2010,03,24,17,40,16.20
2010,03,24,17,41,16.00
2010,03,24,17,42,15.90
2010,03,24,17,43,15.80
2010,03,24,17,44,15.80
2010,03,24,17,45,15.70
2010,03,24,17,46,15.60
2010,03,24,17,47,15.50
2010,03,24,17,48,15.50
2010,03,24,17,49,15.40